Location: Goudex
(43.3760°N, 0.9543°E)
Time: 03:39:56
(UTC+00:00)

NOSS 3-3 (C) - Pass Details

Date: 20 November 2019
Orbit: 844 x 1368 km, 63.4° (Epoch: 05 December)

Event Time Altitude Azimuth Distance (km) Brightness Sun altitude
Exits shadow 04:31:22 51° 324° (NW) 1,195 4.2 -25.9°
Drops below altitude 10° 04:37:33 10° 30° (NNE) 2,867 6.7 -24.8°
Sets 04:40:28 0° 36° (NE) 3,909 7.6 -24.3°
